Location: Les Grands Ch�zeaux
(46.3535°N, 1.3924°E)
Time: 01:15:06
(UTC+00:00)

Daily predictions for brighter satellites

Satellite Brightness Start Highest point End
(mag) Time Altitude Azimuth Time Altitude Azimuth Time Altitude Azimuth
ATLAS CENTAUR R/B 4.3 00:02:52 10° N 00:04:01 13° NNE 00:05:27 10° ENE
Lacrosse 5 4.0 00:01:52 10° W 00:03:12 13° WSW 00:03:12 13° WSW
Cosmos 292 Rocket 4.0 00:03:39 47° WSW 00:04:50 63° WNW 00:09:40 10° NNE
STARLINK-1104 3.7 00:04:35 10° WNW 00:08:13 62° W 00:08:13 62° W
Cosmos 1655 Rocket 4.2 00:07:30 38° SW 00:09:49 61° WNW 00:16:01 10° N
S3M 4.3 00:04:43 10° NNW 00:10:40 54° W 00:12:36 39° SW
GEOS 3 Rocket 4.0 00:07:39 22° ESE 00:11:00 61° NE 00:16:14 10° NNW
Cosmos 1726 2.4 00:07:33 10° NNW 00:10:54 59° WNW 00:10:54 59° WNW
Cosmos 2058 Rocket 4.5 00:08:20 10° N 00:12:17 31° ENE 00:13:46 25° ESE
COSMOS 2455 3.3 00:11:39 39° SSE 00:13:00 46° ESE 00:18:44 10° NE
STARLINK-1144 3.9 00:09:35 10° WNW 00:12:59 54° W 00:12:59 54° W
Meteor 1-29 4.2 00:10:52 10° NNE 00:13:32 32° E 00:13:32 32° E
SL-27 R/B 4.2 00:11:00 10° NW 00:13:10 23° WNW 00:13:10 23° WNW
Cosmos 2263 4.2 00:12:25 43° SW 00:14:18 75° WNW 00:19:56 10° NNE
Cosmos 2228 3.2 00:10:43 10° N 00:14:56 61° ENE 00:15:32 54° ESE
STARLINK-1103 4.1 00:14:34 10° WNW 00:17:46 47° W 00:17:46 47° W
Meteor 2-15 Rocket 4.4 00:12:30 10° N 00:18:42 87° E 00:20:55 43° S
Cosmos 1953 2.9 00:15:41 10° NNW 00:19:26 44° W 00:19:26 44° W
Cosmos 1340 Rocket 3.0 00:17:09 10° NNW 00:21:07 59° W 00:21:07 59° W
Cosmos 1271 Rocket 4.2 00:21:40 26° W 00:22:07 27° WNW 00:25:28 10° NNW
STARLINK-1101 4.3 00:19:33 10° WNW 00:22:32 42° W 00:22:32 42° W
Cosmos 1300 4.3 00:20:47 10° NNE 00:24:04 26° ENE 00:25:04 23° E
Cosmos 1992 Rocket 4.2 00:25:14 43° SW 00:26:48 64° WNW 00:32:00 10° NNE
COSMOS 2487 2.6 00:24:07 10° NNW 00:27:18 69° NNE 00:27:18 69° NNE
Cosmos 1833 4.2 00:22:50 10° NNW 00:28:24 63° WSW 00:29:45 48° SSW
STARLINK-1102 4.5 00:24:34 10° WNW 00:27:20 37° W 00:27:20 37° W
Cosmos 1707 4.3 00:29:05 24° W 00:29:34 25° WNW 00:32:51 10° NNW
USA 215 4.3 00:33:07 25° WSW 00:33:07 25° WSW 00:38:10 10° WNW
Cosmos 1626 3.0 00:34:31 37° E 00:34:41 37° E 00:38:09 10° NNE
Cosmos 1656 Rocket 3.8 00:33:51 41° SW 00:35:51 71° WNW 00:41:28 10° NNE
In-Cosmos 22 4.4 00:35:37 39° SW 00:37:13 54° WNW 00:42:24 10° N
Cosmos 1606 Rocket 3.4 00:34:01 10° NNW 00:38:20 74° W 00:38:48 65° SSW
FALCON 9 R/B 3.5 00:38:25 34° S 00:39:32 36° SSE 00:53:49 10° E
CZ-4 R/B 4.0 00:39:23 10° N 00:44:11 63° WNW 00:45:23 46° SW
Cosmos 2297 Rocket 4.1 00:42:55 10° N 00:47:45 28° NE 00:52:34 10° ESE
Meteor 2-21 4.4 00:45:34 40° S 00:47:58 81° E 00:54:10 10° N
SL-4 R/B 2.4 00:49:13 55° S 00:49:47 59° SE 00:54:29 10° ENE
NOSS 3-2 (C) 4.3 00:43:45 10° NW 00:51:04 49° WSW 00:54:30 33° S
Cosmos 1437 4.1 00:52:48 28° E 00:52:48 28° E 00:55:11 10° NNE
PSLV R/B 4.0 00:48:18 10° N 00:52:50 57° WNW 00:53:53 45° WSW
Cosmos 1674 3.3 00:53:21 42° W 00:53:30 42° WNW 00:57:06 10° N
ATLAS CENTAUR R/B 1.3 00:56:56 61° SSW 00:57:37 78° SE 01:01:48 10° NE
SL-19 R/B 4.2 00:52:33 10° NNE 00:57:58 76° ESE 01:00:03 40° S
Cosmos 1777 Rocket 3.9 00:54:30 10° NNW 00:59:46 89° WSW 01:01:54 37° SSE
Timation 2 Rocket 4.0 00:53:34 10° NNW 01:00:00 77° ENE 01:04:30 19° SE
NOSS 3-4 (A) 3.5 00:57:31 31° SW 01:00:29 71° NW 01:06:52 10° NE
NOSS 3-4 (C) 3.5 00:57:37 32° SW 01:00:34 72° NW 01:06:59 10° NE
BREEZE-M R/B 3.8 01:01:07 36° SE 01:01:07 36° SE 01:04:01 10° E
SL-16 R/B 3.1 00:56:01 16° SE 01:00:51 54° ENE 01:06:51 10° N
Spot 1 4.2 01:00:54 47° S 01:02:15 85° WSW 01:07:08 10° NNW
STARLINK-29 4.4 01:04:34 29° E 01:04:34 29° E 01:06:32 10° ENE
ATLAS 3B R/B 2.6 01:00:16 10° NW 01:07:04 78° SW 01:12:43 17° SSE
CENTAUR R/B 3.5 01:03:11 10° NW 01:10:52 45° WSW 01:14:47 29° SSW
BREEZE-M DEB (TANK) 1.9 01:12:39 51° ENE 01:12:39 51° ENE 01:14:25 10° ENE
Meteor 2-21 Rocket 4.4 01:11:40 36° SSW 01:14:22 83° W 01:20:36 10° N
Cosmos 1867 3.8 01:10:14 10° NW 01:15:27 47° WSW 01:16:44 39° SSW
Cosmos 1892 Rocket 4.0 01:14:51 42° WSW 01:15:51 51° WNW 01:20:10 10° N
Cosmos 1745 Rocket 4.1 01:12:45 30° S 01:15:53 69° E 01:21:59 10° NNE
RESURS DK-1 2.3 01:19:17 53° S 01:20:10 76° ESE 01:24:19 10° NNE
Cosmos 2227 Rocket 3.4 01:18:13 10° NNW 01:23:37 42° NE 01:28:58 10° SE
Meteor 1-24 Rocket 3.7 01:22:03 37° SW 01:24:05 64° WNW 01:29:27 10° N
Cosmos 1356 Rocket 3.5 01:20:04 10° N 01:24:13 76° ENE 01:25:49 37° SSE
Cosmos 2369 Rocket 4.2 01:21:17 10° W 01:25:26 20° NW 01:29:34 10° N
CZ-2D R/B 2.4 01:22:27 10° NNE 01:27:41 60° ESE 01:30:15 29° S
Helios 1B rocket 4.1 01:24:38 10° NNW 01:27:53 23° WNW 01:29:11 20° W
ATLAS 2AS CENTAUR R/B 3.5 01:23:17 18° WSW 01:29:25 55° NW 01:37:11 10° NE
ADEOS II 3.8 01:25:47 10° NE 01:30:10 26° E 01:34:07 12° SSE
CZ-4C R/B 3.4 01:30:46 40° S 01:32:14 82° WSW 01:36:36 10° NNW
STARLINK-1228 2.9 01:31:24 10° WNW 01:34:45 83° SSW 01:38:05 10° SE
DELTA 2 DEB (DPAF) 4.3 01:34:10 40° SSW 01:35:24 53° W 01:39:47 10° NNW
STARLINK-1234 2.7 01:32:49 10° WNW 01:35:57 85° SSW 01:37:02 37° SE
STARLINK-1212 2.9 01:34:12 10° WNW 01:37:18 75° NNE 01:40:24 10° ESE
Resurs 1-4 Rocket 2.2 01:32:09 10° NNE 01:37:28 75° ESE 01:40:11 29° S
Meteor 2-5 Rocket 4.5 01:35:17 26° WSW 01:37:40 38° WNW 01:42:53 10° N
STARLINK-1105 2.9 01:34:40 10° WNW 01:37:46 76° NNE 01:40:51 10° ESE
STARLINK-1209 2.7 01:35:05 10° WNW 01:38:14 78° SSW 01:38:43 60° SE
STARLINK-1247 2.9 01:35:34 10° WNW 01:38:42 77° NNE 01:41:49 10° ESE
STARLINK-1227 2.9 01:36:02 10° WNW 01:39:09 78° NNE 01:42:14 10° ESE
USA 81 4.4 01:36:19 24° SSE 01:39:26 63° E 01:44:39 10° NNE
STARLINK-52 2.8 01:39:41 69° S 01:39:53 72° SSE 01:43:06 10° ENE
STARLINK-1226 2.9 01:36:53 10° WNW 01:40:00 79° NNE 01:43:08 10° ESE
STARLINK-1215 2.9 01:37:50 10° WNW 01:40:58 80° NNE 01:44:04 10° ESE
STARLINK-1217 2.8 01:39:36 10° WNW 01:42:43 83° NNE 01:45:50 10° ESE
STARLINK-1208 4.5 01:38:47 10° NW 01:42:51 52° NNE 01:46:54 10° E
STARLINK-1229 2.8 01:40:31 10° WNW 01:43:39 84° NNE 01:46:46 10° ESE
STARLINK-1270 2.8 01:41:22 10° WNW 01:44:30 85° NNE 01:47:38 10° ESE
NPP 3.7 01:39:29 10° NNE 01:44:54 74° ESE 01:47:57 27° S
STARLINK-1189 2.8 01:43:13 10° WNW 01:46:21 88° NE 01:49:28 10° ESE
STARLINK-1188 2.7 01:44:06 10° WNW 01:47:14 89° NNE 01:50:21 10° ESE
STARLINK-1271 4.4 01:43:46 10° NW 01:47:52 54° NNE 01:51:56 10° ESE
STARLINK-1235 2.6 01:44:47 10° WNW 01:47:53 72° SW 01:50:58 10° SE
STARLINK-1187 2.6 01:45:13 10° WNW 01:48:18 80° SW 01:51:24 10° SE
Cosmos 1898 Rocket 4.3 01:43:47 10° NNW 01:49:02 53° ENE 01:54:12 10° SE
GEOS 3 Rocket 4.5 01:48:43 28° SW 01:49:19 28° WSW 01:53:49 10° WNW
Starlink 7 placeholder 4.1 01:49:43 23° N 01:49:43 23° N 01:51:13 10° NE
STARLINK-1191 2.7 01:46:34 10° WNW 01:49:41 87° SW 01:52:47 10° ESE
Cosmos 2058 Rocket 4.3 01:46:30 10° NNW 01:50:10 26° W 01:51:01 24° WSW
Meteor 1-21 Rocket 4.4 01:46:49 23° S 01:50:17 67° E 01:55:56 10° NNE
Lacrosse 4 Rocket 4.2 01:46:53 10° N 01:50:17 22° NE 01:53:37 10° E
STARLINK-1221 2.7 01:47:27 10° WNW 01:50:33 86° SSW 01:53:40 10° ESE
STARLINK-1222 2.7 01:48:20 10° WNW 01:51:27 84° SSW 01:54:33 10° ESE
Cosmos 1656 4.2 01:48:20 23° S 01:51:40 52° ESE 01:57:07 10° NE
STARLINK-1214 2.7 01:49:15 10° WNW 01:52:22 83° SSW 01:55:27 10° SE
STARLINK-1154 4.3 01:48:45 10° WNW 01:52:51 57° NNE 01:56:57 10° ESE
CZ-4C R/B 3.5 01:50:43 16° SSE 01:53:38 26° ESE 01:58:14 10° ENE
Cosmos 2084 3.5 01:52:18 35° SSW 01:54:10 83° SE 01:58:40 10° NE
SJ 16-02 1.8 01:50:13 10° NNW 01:54:38 62° ENE 01:59:01 10° SSE
SL-08 ROCKET BODY 4.4 01:52:04 28° SSW 01:55:14 64° W 02:01:05 10° N
STARLINK-1197 4.2 01:53:44 10° WNW 01:57:51 61° NNE 02:01:57 10° ESE
COSMOS 2455 3.8 01:54:47 16° WSW 01:59:03 39° NW 02:04:41 10° NNE
Cosmos 1300 4.1 01:56:32 10° NW 01:59:36 23° W 02:00:00 23° W
Meteor 2-10 Rocket 3.5 01:56:23 10° N 02:01:46 86° E 02:06:01 15° SSE
Cosmos 921 Rocket 3.8 02:00:21 27° WSW 02:02:07 40° WNW 02:06:12 10° N
STARLINK-1198 4.0 01:58:41 10° WNW 02:02:48 64° NNE 02:06:56 10° ESE
Cosmos 1709 Rocket 3.9 02:01:48 21° S 02:06:00 90° W 02:12:10 10° N
STARLINK-1199 3.9 02:03:41 10° WNW 02:07:50 68° NNE 02:11:58 10° ESE
Cosmos 1626 Rocket 4.2 02:06:42 27° SW 02:08:29 40° WNW 02:12:35 10° N
Cosmos 1626 4.1 02:09:03 15° W 02:10:07 16° WNW 02:12:33 10° NNW
STARLINK-60 4.3 02:08:51 16° W 02:11:02 37° NNW 02:14:04 10° NE
STARLINK-1210 3.8 02:08:39 10° WNW 02:12:48 73° NNE 02:16:57 10° ESE
STARLINK-1320 3.2 02:14:52 36° SSW 02:15:43 49° SE 02:18:44 10° ENE
STARLINK-1322 3.2 02:15:11 36° SSW 02:16:03 50° SE 02:19:05 10° ENE
STARLINK-1324 3.2 02:15:32 36° SSW 02:16:24 50° SE 02:19:27 10° ENE
Cosmos 2219 3.2 02:11:02 10° NNW 02:16:37 60° WSW 02:22:07 10° S
STARLINK-1294 3.2 02:15:47 36° SSW 02:16:41 50° SE 02:19:44 10° ENE
STARLINK-1261 3.2 02:16:09 36° SSW 02:17:03 51° SE 02:20:06 10° ENE
STARLINK-1325 3.2 02:16:30 36° SSW 02:17:25 51° SE 02:20:28 10° ENE
STARLINK-1333 3.2 02:16:48 36° SSW 02:17:43 51° SE 02:20:47 10° ENE
STARLINK-1219 3.7 02:13:38 10° WNW 02:17:48 77° NNE 02:21:56 10° ESE
STARLINK-1334 3.2 02:17:07 36° SSW 02:18:03 52° SE 02:21:06 10° ENE
STARLINK-1326 3.1 02:17:28 36° SSW 02:18:24 52° SE 02:21:28 10° ENE
STARLINK-1323 3.1 02:17:47 35° SSW 02:18:44 53° SE 02:21:48 10° ENE
STARLINK-1338 3.5 02:17:39 31° SSW 02:18:57 50° SE 02:22:21 10° ENE
Cosmos 1980 Rocket 3.9 02:14:31 10° SSE 02:19:04 26° ESE 02:23:39 10° NE
STARLINK-1349 3.1 02:18:06 35° SSW 02:19:04 53° SE 02:22:07 10° ENE
STARLINK-1336 3.1 02:18:28 35° SSW 02:19:26 53° SE 02:22:30 10° ENE
STARLINK-1331 3.1 02:18:45 35° SSW 02:19:45 54° SE 02:22:48 10° ENE
STARLINK-1344 3.1 02:19:05 35° SSW 02:20:05 54° SE 02:23:09 10° ENE
STARLINK-1343 3.1 02:19:25 35° SSW 02:20:26 54° SE 02:23:29 10° ENE
STARLINK-1346 3.1 02:19:43 34° SSW 02:20:47 55° SE 02:23:52 10° ENE
STARLINK-1328 3.1 02:20:05 34° SSW 02:21:08 55° SE 02:24:11 10° ENE
STARLINK-1354 3.1 02:20:22 34° SSW 02:21:26 56° SE 02:24:29 10° ENE
STARLINK-1347 3.1 02:20:44 34° SSW 02:21:48 56° SE 02:24:52 10° ENE
Cosmos 1328 3.9 02:19:19 20° S 02:22:00 73° E 02:25:59 10° NNE
STARLINK-1357 3.0 02:21:01 34° SSW 02:22:06 56° SE 02:25:10 10° ENE
STARLINK-1335 3.0 02:21:22 34° SSW 02:22:27 57° SE 02:25:32 10° ENE
STARLINK-1211 3.7 02:18:35 10° WNW 02:22:45 82° NNE 02:26:54 10° ESE
STARLINK-1327 3.0 02:21:41 33° SSW 02:22:47 57° SE 02:25:51 10° ENE
STARLINK-1371 3.4 02:21:31 29° SSW 02:22:59 54° SE 02:26:25 10° ENE
STARLINK-1340 3.0 02:22:01 33° SSW 02:23:08 58° SE 02:26:12 10° ENE
STARLINK-1356 3.0 02:22:21 33° SSW 02:23:29 58° SE 02:26:33 10° ENE
Cosmos 192 4.5 02:20:35 23° SW 02:23:38 65° WNW 02:28:36 10° NNE
STARLINK-1345 3.0 02:22:40 33° SSW 02:23:49 59° SE 02:26:54 10° ENE
STARLINK-1355 3.0 02:22:59 33° SSW 02:24:09 59° SE 02:27:14 10° ENE
STARLINK-1321 3.0 02:23:18 33° SSW 02:24:28 59° SE 02:27:33 10° ENE
ERS-2 3.4 02:21:12 10° SE 02:24:39 41° ENE 02:28:08 10° N
STARLINK-1358 3.0 02:23:39 32° SSW 02:24:50 60° SE 02:27:55 10° ENE
STARLINK-1341 3.4 02:23:29 29° SSW 02:25:01 56° SE 02:28:28 10° ENE
STARLINK-1332 3.0 02:23:57 32° SSW 02:25:08 60° SE 02:28:13 10° ENE
STARLINK-1348 3.0 02:24:18 32° SSW 02:25:30 61° SE 02:28:36 10° ENE
STARLINK-1330 3.0 02:24:36 32° SW 02:25:49 61° SSE 02:28:54 10° ENE
STARLINK-1363 3.0 02:24:56 32° SW 02:26:09 62° SE 02:29:15 10° ENE
STARLINK-1337 2.9 02:25:15 31° SW 02:26:30 62° SE 02:29:35 10° ENE
STARLINK-1342 2.9 02:25:35 31° SW 02:26:50 62° SE 02:29:56 10° ENE
STARLINK-1374 3.3 02:25:26 28° SSW 02:27:04 59° SE 02:30:32 10° ENE
STARLINK-1364 2.9 02:25:55 31° SW 02:27:11 63° SE 02:30:16 10° ENE
STARLINK-1376 2.9 02:26:15 31° SW 02:27:31 63° SSE 02:30:38 10° ENE
STARLINK-1245 3.6 02:23:35 10° WNW 02:27:45 87° NNE 02:31:54 10° ESE
STARLINK-1360 2.9 02:26:30 31° SW 02:27:48 64° SE 02:30:53 10° ENE
STARLINK-1361 2.9 02:26:56 30° SW 02:28:14 64° SE 02:31:19 10° ENE
STARLINK-1367 2.9 02:27:10 30° SW 02:28:30 65° SE 02:31:38 10° ENE
IRS-1C 4.4 02:23:18 10° NNE 02:28:39 68° ESE 02:33:25 13° S
STARLINK-1366 2.9 02:27:33 30° SW 02:28:53 65° SE 02:31:58 10° ENE
AQUA 4.1 02:24:24 10° N 02:29:04 54° WNW 02:32:11 20° SW
STARLINK-1339 3.3 02:27:27 27° SW 02:29:09 61° SE 02:32:37 10° ENE
Cosmos 1812 Rocket 4.4 02:25:18 10° NNW 02:29:21 34° W 02:31:37 21° SW
SL-4 R/B 3.0 02:24:55 10° W 02:29:39 54° NNW 02:34:13 10° ENE
STARLINK-1377 3.3 02:29:28 26° SW 02:31:14 63° SE 02:34:43 10° ENE
CZ-4B R/B 3.9 02:26:36 10° N 02:31:34 52° WNW 02:35:12 19° SW
Cosmos 2297 Rocket 2.3 02:26:37 10° NW 02:32:08 56° WSW 02:37:38 10° S
STARLINK-1233 3.5 02:28:33 10° WNW 02:32:43 87° SW 02:36:52 10° ESE
STARLINK-1353 3.2 02:31:17 25° SW 02:33:06 65° SE 02:36:34 10° ENE
STARLINK-1375 3.2 02:33:04 24° SW 02:34:57 68° SE 02:38:26 10° ENE
Cosmos 2082 3.8 02:30:12 10° NNW 02:35:54 84° ENE 02:41:32 10° SSE
ATLAS CENTAUR R/B 3.5 02:33:53 10° W 02:36:57 19° NW 02:39:54 10° N
Cosmos 540 Rocket 4.2 02:32:22 11° S 02:37:09 48° ESE 02:42:05 10° NNE
STARLINK-1350 3.1 02:35:22 23° SW 02:37:21 71° SE 02:40:50 10° ENE
STARLINK-1204 3.5 02:33:33 10° WNW 02:37:43 82° SSW 02:41:51 10° SE
FALCON 9 DEB 3.5 02:35:24 17° WSW 02:37:51 59° NNW 02:41:18 10° NE
Cosmos 990 Rocket 4.0 02:32:49 10° NNW 02:38:00 61° WSW 02:43:09 10° S
CBERS-1 4.1 02:33:24 10° N 02:38:28 65° WNW 02:42:29 16° SSW
STARLINK-29 4.1 02:36:59 12° W 02:39:40 39° NNW 02:42:42 10° NE
STARLINK-1352 3.2 02:37:39 22° SW 02:39:47 74° SE 02:43:18 10° ENE
OE (NEXTSAT) 4.2 02:36:54 14° W 02:39:48 85° S 02:43:18 10° E
Cosmos 1825 Rocket 3.6 02:38:22 18° SSW 02:41:24 60° WNW 02:45:42 10° N
Cosmos 2278 4.5 02:36:09 10° S 02:41:30 47° ESE 02:46:55 10° NE
STARLINK-1368 3.1 02:39:45 21° SW 02:41:57 77° SE 02:45:28 10° ENE
Cosmos 1455 2.9 02:38:40 10° NNW 02:42:07 35° W 02:44:16 19° SSW
STARLINK-1238 3.5 02:38:30 10° WNW 02:42:40 76° SSW 02:46:48 10° SE
CZ-2D R/B 4.5 02:38:59 10° NNE 02:42:56 43° E 02:46:57 10° S
STARLINK-1369 3.1 02:41:37 21° SW 02:43:51 80° SSE 02:47:22 10° ENE
Meteor 1-11 4.4 02:38:17 10° S 02:43:54 73° E 02:49:29 10° NNE
Meteor 1-28 Rocket 3.5 02:40:40 10° SSE 02:44:25 67° ENE 02:48:11 10° N
SL-16 R/B 3.5 02:41:06 16° SW 02:44:45 28° W 02:49:58 10° NW
USA 234 4.4 02:39:17 10° ENE 02:45:01 32° SE 02:50:42 10° S
ATLAS CENTAUR R/B 2.5 02:42:58 10° WNW 02:46:08 46° SW 02:53:19 10° SSE
STARLINK-1372 3.1 02:43:57 19° SW 02:46:20 83° SE 02:49:52 10° ENE
Cosmos 2074 Rocket 4.2 02:41:03 10° S 02:47:19 77° E 02:53:38 10° NNE
Cosmos 2263 Rocket 4.3 02:42:40 10° N 02:47:36 30° NE 02:52:28 10° ESE
STARLINK-1201 3.5 02:43:31 10° WNW 02:47:39 71° SW 02:51:46 10° SE
STARLINK-1378 3.1 02:46:05 19° WSW 02:48:33 86° SE 02:52:06 10° ENE
STARLINK-1329 3.1 02:46:35 18° WSW 02:49:04 87° SSE 02:52:38 10° ENE
Cosmos 841 Rocket 3.8 02:44:27 11° S 02:49:24 67° ESE 02:54:36 10° NNE
STARLINK-1365 3.1 02:47:17 18° WSW 02:49:48 89° NNW 02:53:21 10° ENE
GP-B 3.8 02:46:16 10° NNW 02:50:23 38° W 02:53:36 15° SW
STARLINK-1379 3.1 02:48:13 18° WSW 02:50:46 89° SSE 02:54:19 10° ENE
IRS-1D 4.0 02:46:09 10° N 02:51:21 52° WNW 02:55:45 14° SW
STARLINK-1362 3.1 02:48:47 17° WSW 02:51:21 90° SSW 02:54:56 10° ENE
STARLINK-1206 3.5 02:48:30 10° WNW 02:52:37 66° SW 02:56:43 10° SE
STARLINK-1373 3.2 02:50:59 17° WSW 02:53:40 87° NNW 02:57:13 10° ENE
Cosmos-2242 3.5 02:49:41 10° NNW 02:53:42 41° W 02:57:21 12° SSW
COBE Rocket 3.9 02:49:31 10° SSE 02:54:26 89° WSW 02:59:32 10° NNW
Cosmos 1400 Rocket 2.9 02:50:48 10° N 02:54:56 89° E 02:59:04 10° S
Cosmos 2221 3.7 02:51:32 10° N 02:55:42 44° ENE 02:59:51 10° SSE
STARLINK-1390 3.2 02:52:58 16° WSW 02:55:43 85° NNW 02:59:16 10° ENE
NOSS 7 (E) 4.4 02:53:04 16° SSW 02:55:49 80° SE 02:58:56 10° NE
ATLAS 3B R/B 4.1 02:52:45 10° WNW 02:56:46 17° WSW 02:59:50 13° SW
STARLINK-1205 3.6 02:53:29 10° WNW 02:57:35 61° SW 03:01:40 10° SE
Cosmos 2184 Rocket 4.0 02:52:38 10° S 02:58:50 88° E 03:05:03 10° N
SL-08 R/B 3.4 02:55:22 10° S 02:59:59 55° W 03:04:34 10° NNW
CZ-4C R/B 3.5 02:56:51 10° SSE 03:00:23 64° ENE 03:04:00 10° N
STARLINK-1218 3.7 02:58:28 10° WNW 03:02:32 56° SW 03:06:35 10° SE
STARLINK-1202 4.5 03:00:45 10° NW 03:04:49 53° NNE 03:08:54 10° E
Cosmos 1703 4.2 03:02:09 14° SW 03:05:05 33° WNW 03:08:43 10° N
IRS-P3 4.4 03:01:46 10° N 03:06:57 54° WNW 03:12:06 10° SW
CZ-2D R/B 3.7 03:03:21 10° NNW 03:07:18 22° WNW 03:11:12 10° WSW
STARLINK-1254 3.7 03:03:28 10° WNW 03:07:31 51° SW 03:11:31 10° SE
Cosmos 2227 Rocket 2.9 03:02:30 10° NW 03:07:34 34° WSW 03:12:35 10° SSW
Cosmos 1763 Rocket 3.9 03:03:46 13° SW 03:08:14 48° WNW 03:13:11 10° NNE
ADEOS II 2.6 03:05:03 10° N 03:10:04 46° WNW 03:15:03 10° SW
Cosmos 1697 Rocket 2.8 03:04:56 11° SW 03:10:18 72° WNW 03:16:00 10° NNE
Cosmos 2150 Rocket 4.5 03:06:31 10° NNW 03:11:42 66° ENE 03:16:49 10° SSE
STARLINK-1231 3.8 03:08:29 10° WNW 03:12:29 47° SW 03:16:28 10° SE
STARLINK-1246 4.3 03:10:41 10° WNW 03:14:48 59° NNE 03:18:54 10° ESE
Cosmos 1315 Rocket 3.6 03:11:06 10° N 03:14:57 53° ENE 03:18:47 10° SSE
SL-16 R/B 4.3 03:12:10 10° SSE 03:16:31 23° ESE 03:20:53 10° NE
Resurs 1-4 Rocket 3.9 03:13:10 10° NNW 03:16:42 18° WNW 03:20:14 10° W
CZ-2C R/B 3.0 03:13:13 10° NNE 03:16:54 65° ESE 03:20:36 10° S
STARLINK-1232 3.9 03:13:30 10° WNW 03:17:27 44° SW 03:21:23 10° SSE
STARLINK-1224 4.2 03:15:40 10° WNW 03:19:48 63° NNE 03:23:54 10° ESE
H-2A R/B 2.1 03:16:34 10° S 03:20:49 62° WSW 03:25:12 10° NNW
ARIANE 5 R/B 2.7 03:16:41 10° N 03:21:39 56° WNW 03:26:33 10° SSW
STARLINK-1208 4.0 03:18:29 10° WNW 03:22:22 40° SW 03:26:16 10° SSE
BREEZE-M R/B 2.9 03:19:51 10° W 03:23:19 48° NNW 03:25:45 10° ENE
STARLINK-1225 4.1 03:20:39 10° WNW 03:24:48 67° NNE 03:28:55 10° ESE
STARLINK-1271 4.1 03:23:31 10° WNW 03:27:21 37° SW 03:31:10 10° SSE
Spot 4 Rocket 4.1 03:22:27 10° N 03:27:35 68° WNW 03:32:40 10° SSW
BREEZE-M DEB (TANK) 2.2 03:26:06 10° W 03:27:58 25° SSW 03:30:04 10° SSE
SL-24 DEB 4.4 03:23:21 10° N 03:28:02 82° E 03:32:37 10° S
Lacrosse 4 Rocket 1.5 03:25:04 10° NW 03:29:19 54° WSW 03:33:25 10° SSE
STARLINK-1230 4.0 03:25:38 10° WNW 03:29:46 71° NNE 03:33:55 10° ESE
Meteor 1-27 4.3 03:24:52 10° NNW 03:30:19 56° W 03:35:44 10° S
Cosmos 2154 Rocket 4.1 03:24:31 10° S 03:30:49 83° W 03:37:08 10° N
USA 129 0.9 03:29:22 10° NNE 03:31:25 80° WNW 03:32:52 10° SSW
Cosmos 2058 3.5 03:28:00 10° S 03:32:06 59° E 03:36:15 10° NNE
STARLINK-1154 4.2 03:28:32 10° WNW 03:32:18 34° SW 03:36:04 10° SSE
SJ 16-02 3.2 03:30:19 10° WNW 03:32:40 14° W 03:35:01 10° SW
Cosmos 2298 Rocket 4.0 03:28:03 10° NNW 03:33:22 77° WSW 03:38:38 10° SSE
STARLINK-1243 3.9 03:30:36 10° WNW 03:34:46 75° NNE 03:38:54 10° ESE
IDEFIX/ARIANE 42P 2.6 03:30:18 10° NNE 03:35:36 81° WNW 03:40:52 10° SSW
